This is the latest recevied weather packets stored in our database for station/object DL6MM-4. If no packets are shown the sender has not sent any weather packets the latest 10 day(s).
| Time | Temp. | Humidity | Pressure | Rain* | Wind** | Luminosity | Snow |
|---|---|---|---|---|---|---|---|
| 1777484954 | 13.89° C | 39% | 1026.4 hPa | 0 mm | - | - | - |
| 1777484354 | 13.89° C | 37% | 1026.4 hPa | 0 mm | - | - | - |
| 1777483754 | 13.89° C | 36% | 1026.4 hPa | 0 mm | - | - | - |
| 1777483154 | 13.89° C | 38% | 1026.3 hPa | 0 mm | - | - | - |
| 1777482554 | 13.89° C | 37% | 1026.4 hPa | 0 mm | - | - | - |
| 1777481954 | 13.89° C | 37% | 1026.3 hPa | 0 mm | - | - | - |
| 1777481354 | 14.44° C | 36% | 1026.3 hPa | 0 mm | - | - | - |
| 1777480754 | 14.44° C | 36% | 1026.3 hPa | 0 mm | - | - | - |
| 1777480154 | 15° C | 37% | 1026.3 hPa | 0 mm | - | - | - |
| 1777479554 | 14.44° C | 37% | 1026.2 hPa | 0 mm | - | - | - |
| 1777478954 | 15° C | 37% | 1026.2 hPa | 0 mm | - | - | - |
| 1777478354 | 14.44° C | 36% | 1026.2 hPa | 0 mm | - | - | - |
| 1777477754 | 15° C | 36% | 1026 hPa | 0 mm | - | - | - |
| 1777477154 | 15° C | 36% | 1026.2 hPa | 0 mm | - | - | - |
| 1777476554 | 15° C | 34% | 1026.2 hPa | 0 mm | - | - | - |
| 1777475954 | 15° C | 36% | 1026 hPa | 0 mm | - | - | - |
| 1777475354 | 15.56° C | 34% | 1026 hPa | 0 mm | - | - | - |
| 1777474754 | 15.56° C | 36% | 1026.2 hPa | 0 mm | - | - | - |
| 1777474154 | 15.56° C | 34% | 1026.3 hPa | 0 mm | - | - | - |
| 1777473554 | 15.56° C | 36% | 1026.3 hPa | 0 mm | - | - | - |
| 1777472954 | 15.56° C | 38% | 1026.2 hPa | 0 mm | - | - | - |
| 1777472354 | 15.56° C | 35% | 1026.2 hPa | 0 mm | - | - | - |
| 1777471754 | 15.56° C | 36% | 1026.2 hPa | 0 mm | - | - | - |
| 1777471154 | 15.56° C | 37% | 1026.4 hPa | 0 mm | - | - | - |
| 1777470554 | 15.56° C | 36% | 1026.2 hPa | 0 mm | - | - | - |
* Rain latest hour (hover to see other rain measurements)
** Current wind speed in m/s (hover to see current wind gust speed)